Weather History for Trinidad, CO

Change the Weather History Date:

Wednesday, February 6, 2013

  Actual Average Record
Temperature  
Mean Temperature 49 °F 33 °F  
Max Temperature 65 °F 48 °F 68 °F (1950)
Min Temperature 32 °F 18 °F -17 °F (1989)
Degree Days  
Heating Degree Days 16 32  
Month to date heating degree days 151 192  
Since 1 July heating degree days 3201 3474  
Cooling Degree Days 0 0  
Month to date cooling degree days 0 0  
Year to date cooling degree days 0 0  
Moisture  
Dew Point 15 °F    
Average Humidity 28    
Maximum Humidity 44    
Minimum Humidity 12    
Precipitation  
Precipitation 0.00 in 0.02 in 0.29 in (2011)
Month to date precipitation 0.00 0.09  
Year to date precipitation 0.08 0.49  
Sea Level Pressure  
Sea Level Pressure 29.77 in    
Wind  
Wind Speed 11 mph (North)    
Max Wind Speed 22 mph    
Max Gust Speed 30 mph    
Visibility 10 miles    
Events      
T = Trace of Precipitation, MM = Missing Value Source: NWS Daily Summary

Daily Weather History Graph

Daily Weather History Graph

Search for Another Location

Airport:

Trip Planner

Search our weather history database for the weather conditions in past years. The results will help you decide how hot, cold, wet, or windy it might be!

Date:

Astronomy

Feb. 06, 2013 Rise Set
Actual Time 6:55 AM MST 5:27 PM MST
Civil Twilight 6:28 AM MST 5:54 PM MST
Nautical Twilight 5:57 AM MST 6:25 PM MST
Astronomical Twilight 5:27 AM MST 6:56 PM MST
Moon 3:39 AM MST (2/6) 1:51 PM MST (2/6)
Length of Visible Light 11h 26m
Length of Day
10h 32m
Waning Crescent, 16% of the Moon is Illuminated
Feb 6
Waning Crescent
Feb 10
New
Feb 17
First Quarter
Feb 25
Full
Mar 4
Last Quarter

Hourly Weather History & Observations

Time (MST) Temp. Windchill Dew Point Humidity Pressure Visibility Wind Dir Wind Speed Gust Speed Precip Events Conditions
12:54 AM 37.9 °F 29.2 °F 15.1 °F 39% 29.82 in 10.0 mi WSW 15.0 mph - N/A   Clear
1:54 AM 36.0 °F 29.6 °F 15.1 °F 43% 29.80 in 10.0 mi SW 8.1 mph - N/A   Clear
2:54 AM 36.0 °F 28.5 °F 15.1 °F 43% 29.78 in 10.0 mi SW 10.4 mph - N/A   Clear
3:54 AM 35.1 °F 25.9 °F 15.1 °F 44% 29.76 in 10.0 mi WSW 13.8 mph - N/A   Clear
4:54 AM 35.1 °F 25.5 °F 14.0 °F 42% 29.76 in 10.0 mi WSW 15.0 mph - N/A   Clear
5:54 AM 35.1 °F 25.5 °F 14.0 °F 42% 29.77 in 10.0 mi WSW 15.0 mph - N/A   Clear
6:54 AM 34.0 °F 22.7 °F 12.9 °F 42% 29.78 in 10.0 mi WSW 19.6 mph - N/A   Clear
8:54 AM 41.0 °F 35.2 °F 14.0 °F 33% 29.81 in 10.0 mi West 9.2 mph - N/A   Clear
9:54 AM 51.1 °F - 12.0 °F 21% 29.77 in 10.0 mi Calm Calm - N/A   Clear
10:54 AM 57.9 °F - 12.0 °F 16% 29.74 in 10.0 mi Variable 3.5 mph - N/A   Clear
11:54 AM 60.1 °F - 10.9 °F 14% 29.68 in 10.0 mi SE 3.5 mph - N/A   Clear
12:54 PM 61.0 °F - 10.9 °F 14% 29.65 in 10.0 mi SSE 4.6 mph - N/A   Clear
1:27 PM 64.4 °F - 10.4 °F 12% 29.76 in 10.0 mi North 10.4 mph 21.9 mph N/A   Clear
1:54 PM 63.0 °F - 10.0 °F 13% 29.64 in 10.0 mi NNE 10.4 mph 16.1 mph N/A   Clear
2:54 PM 63.0 °F - 9.0 °F 12% 29.63 in 10.0 mi ENE 9.2 mph - N/A   Clear
3:54 PM 57.9 °F - 12.0 °F 16% 29.68 in 10.0 mi NNE 12.7 mph - N/A   Clear
4:54 PM 54.0 °F - 14.0 °F 21% 29.72 in 10.0 mi NNE 6.9 mph - N/A   Partly Cloudy
5:54 PM 54.0 °F - 15.1 °F 22% 29.75 in 10.0 mi North 8.1 mph - N/A   Overcast
6:54 PM 53.1 °F - 16.0 °F 23% 29.79 in 10.0 mi North 12.7 mph - N/A   Overcast
7:54 PM 50.0 °F - 18.0 °F 28% 29.85 in 10.0 mi NNE 18.4 mph 24.2 mph N/A   Overcast
8:54 PM 46.9 °F - 18.0 °F 32% 29.87 in 10.0 mi NE 10.4 mph - N/A   Overcast
9:54 PM 45.0 °F 38.2 °F 19.0 °F 36% 29.87 in 10.0 mi NE 15.0 mph 23.0 mph N/A   Overcast
10:54 PM 43.0 °F 38.2 °F 19.9 °F 40% 29.86 in 10.0 mi ENE 8.1 mph - N/A   Overcast
11:54 PM 39.9 °F 32.5 °F 27.0 °F 60% 29.89 in 10.0 mi NE 12.7 mph - N/A   Overcast